1536152400.87,58744,19.44,74056.8,7.97,6.29,6.39,0,*7F
1536152402.07,58745,19.38,74054.5,7.97,6.17,6.29,0,*72
1536152403.25,58746,19.38,74054.5,7.97,6.07,6.29,0,*70
1536152404.45,58747,19.38,74056.0,7.97,6.17,6.29,0,*70
1536152405.7,58748,19.38,74054.3,7.95,6.47,6.57,0,*71
1536152406.91,58749,19.38,74054.8,7.97,6.03,6.13,0,*72
1536152408.14,58750,19.38,74054.0,7.97,5.93,6.13,0,*70
1536152409.38,58751,19.38,74054.3,7.95,6.25,6.47,0,*7C
1536152410.59,58752,19.38,74054.0,7.97,5.95,6.13,0,*74
1536152411.79,58753,19.38,74052.3,7.99,6.03,6.07,0,*72
1536152413.0,58754,19.38,74056.5,7.95,5.99,6.11,0,*7E
1536152414.24,58755,19.38,74054.0,7.95,6.21,6.35,0,*79
1536152415.44,58756,19.44,74058.8,7.97,5.95,6.13,0,*70
1536152416.65,58757,19.38,74056.5,7.95,6.11,6.21,0,*7D
1536152417.86,58758,19.38,74056.0,7.97,6.03,6.13,0,*72
1536152419.06,58759,19.38,74054.3,7.95,5.23,5.41,0,*74
1536152420.29,58760,19.38,74050.0,7.95,5.63,5.77,0,*7F
1536152421.54,58761,19.38,74052.3,7.95,5.89,5.93,0,*70
1536152422.77,58762,19.38,74054.5,7.95,5.99,6.13,0,*79
1536152424.0,58763,19.38,74054.0,7.93,6.61,6.73,0,*7C
1536152425.22,58764,19.38,74054.0,7.93,6.57,6.69,0,*75
1536152426.46,58765,19.44,74058.0,7.95,6.25,6.47,0,*7B
1536152427.69,58766,19.38,74058.3,7.95,6.11,6.13,0,*7E
1536152428.92,58767,19.38,74058.3,7.95,5.67,5.77,0,*7C
1536152430.15,58768,19.38,74054.8,7.95,5.89,5.99,0,*73
1536152431.36,58769,19.38,74054.8,7.95,6.11,6.21,0,*70
1536152432.61,58770,19.38,74052.8,7.95,6.47,6.57,0,*7A
1536152433.88,58771,19.38,74054.8,7.95,6.35,6.51,0,*78
1536152435.13,58772,19.44,74056.8,7.95,6.57,6.61,0,*7C
1536152436.36,58773,19.38,74052.0,7.97,6.51,6.61,0,*79
1536152437.61,58774,19.38,74052.0,7.99,6.61,6.65,0,*77
1536152438.81,58775,19.38,74054.5,7.97,6.53,6.75,0,*78
1536152439.99,58776,19.44,74056.8,7.97,6.83,7.05,0,*70
1536152441.24,58777,19.38,74054.0,7.99,6.51,6.65,0,*77
1536152442.5,58778,19.38,74056.0,7.99,6.17,6.47,0,*7A
1536152443.7,58779,19.38,74054.3,8.01,6.07,6.35,0,*71
1536152444.9,58780,19.38,74056.5,7.99,5.67,5.95,0,*75
1536152446.12,58781,19.38,74056.5,7.99,5.49,5.77,0,*74
1536152447.32,58782,19.44,74058.8,7.95,5.29,5.45,0,*7C
1536152448.52,58783,19.44,74056.3,8.01,5.85,6.07,0,*7C
1536152449.71,58784,19.38,74052.3,7.97,6.03,6.25,0,*76
1536152450.94,58785,19.38,74056.3,7.97,6.35,6.61,0,*72
1536152452.17,58786,19.38,74058.3,7.99,6.13,6.25,0,*7B
1536152453.37,58787,19.38,74054.8,7.97,5.95,6.13,0,*7C
1536152454.57,58788,19.38,74056.0,7.97,5.71,5.93,0,*72
1536152455.78,58789,19.38,74054.8,7.97,5.95,6.13,0,*72
1536152456.96,58790,19.38,74052.8,7.97,5.33,5.45,0,*76
1536152458.18,58791,19.38,74052.5,7.95,5.63,5.77,0,*71
1536152459.42,58792,19.38,74050.5,7.95,5.93,6.11,0,*7E
1536152460.62,58793,19.38,74052.3,7.97,5.67,5.85,0,*78
1536152461.86,58794,19.38,74048.8,7.95,5.01,5.23,0,*71
1536152463.04,58795,19.38,74054.5,7.93,5.45,5.63,0,*72
1536152464.27,58796,19.44,74054.8,7.89,5.73,5.85,0,*77
1536152465.47,58797,19.38,74050.0,7.93,5.51,5.67,0,*71
1536152466.68,58798,19.38,74048.3,7.89,5.85,5.95,0,*71
1536152467.88,58799,19.38,74050.5,7.89,6.17,6.29,0,*7C
1536152469.11,58800,19.38,74054.0,7.95,6.61,6.79,0,*7A
1536152470.33,58801,19.38,74050.0,7.89,6.53,6.57,0,*7B
1536152471.56,58802,19.38,74054.8,7.89,6.43,6.53,0,*7D
1536152472.77,58803,19.38,74054.8,7.93,6.33,6.43,0,*71
1536152474.01,58804,19.38,74052.5,7.95,6.03,6.13,0,*76
1536152475.24,58805,19.38,74048.0,7.93,6.51,6.61,0,*73
1536152476.47,58806,19.38,74054.5,7.93,6.47,6.57,0,*72
1536152477.7,58807,19.38,74050.5,7.93,6.47,6.57,0,*73
1536152478.92,58808,19.38,74050.5,7.93,6.69,6.73,0,*76
1536152480.17,58809,19.38,74054.0,7.95,6.69,6.73,0,*71
1536152481.4,58810,19.38,74052.0,7.97,6.51,6.61,0,*73
1536152482.62,58811,19.38,74048.5,7.97,6.53,6.61,0,*70
1536152483.87,58812,19.38,74048.3,7.95,6.57,6.65,0,*71
1536152485.07,58813,19.38,74050.0,7.95,6.79,6.83,0,*74
1536152486.28,58814,19.44,74050.3,7.97,6.83,6.87,0,*70
1536152487.48,58815,19.44,74054.3,7.99,6.93,7.09,0,*79
1536152488.68,58816,19.38,74048.3,7.99,7.05,7.09,0,*74
1536152489.88,58817,19.38,74050.8,8.01,7.01,7.11,0,*76
1536152491.08,58818,19.38,74050.3,8.01,6.79,6.91,0,*7E
1536152492.33,58819,19.38,74050.8,8.03,6.53,6.73,0,*79
1536152493.55,58820,19.38,74050.0,8.03,6.69,6.79,0,*70
1536152494.75,58821,19.38,74050.5,8.03,6.79,6.83,0,*75
1536152495.92,58822,19.44,74052.5,8.05,6.79,6.93,0,*71
1536152497.11,58823,19.38,74050.5,8.05,6.69,6.79,0,*75
1536152498.36,58824,19.38,74050.0,8.07,6.65,6.73,0,*76
1536152499.6,58825,19.38,74052.0,8.07,6.57,6.73,0,*76
1536152500.85,58826,19.38,74050.0,8.07,6.47,6.65,0,*73
1536152502.05,58827,19.38,74054.5,8.07,6.07,6.29,0,*7E
1536152503.25,58828,19.38,74052.3,8.09,5.81,5.95,0,*76
1536152504.46,58829,19.38,74054.0,8.09,5.93,5.99,0,*78
1536152505.68,58830,19.38,74054.0,8.07,6.07,6.39,0,*79
1536152506.89,58831,19.38,74054.0,8.09,6.13,6.33,0,*79
1536152508.11,58832,19.38,74054.5,8.09,5.51,5.93,0,*76
1536152509.34,58833,19.38,74054.3,8.09,4.93,5.51,0,*76
1536152510.51,58834,19.38,74052.0,8.09,4.57,5.37,0,*79
1536152511.75,58835,19.38,74052.3,8.11,4.11,5.01,0,*76
1536152512.95,58836,19.38,74050.8,8.11,4.11,5.41,0,*71
1536152514.18,58837,19.38,74054.8,8.11,4.19,5.51,0,*79
1536152515.38,58838,19.38,74054.8,8.15,4.75,6.03,0,*7C
1536152516.6,58839,19.38,74052.3,8.15,5.05,6.13,0,*7A
1536152517.78,58840,19.38,74054.3,8.15,4.53,5.67,0,*76
1536152518.96,58841,19.38,74054.5,8.15,5.19,6.21,0,*79
1536152520.13,58842,19.38,74054.5,8.15,5.07,6.11,0,*76
1536152521.35,58843,19.38,74054.5,8.17,5.07,5.89,0,*77
1536152522.55,58844,19.38,74054.5,8.15,4.67,5.45,0,*75
1536152523.74,58845,19.38,74054.0,8.15,5.45,5.93,0,*7E
1536152524.96,58846,19.38,74054.3,8.11,5.37,5.85,0,*7B
1536152526.16,58847,19.38,74054.8,8.11,4.89,5.37,0,*77
1536152527.36,58848,19.38,74052.3,8.11,4.81,5.15,0,*70
1536152528.6,58849,19.38,74050.5,8.09,4.71,5.01,0,*72
1536152529.85,58850,19.44,74052.8,8.07,4.63,4.79,0,*79
1536152531.05,58851,19.38,74052.3,8.05,5.23,5.55,0,*70
1536152532.23,58852,19.38,74052.0,8.05,5.11,5.33,0,*72
1536152533.42,58853,19.38,74052.5,8.03,5.29,5.45,0,*7F
1536152534.66,58854,19.38,74052.5,8.03,4.71,4.85,0,*79
1536152535.9,58855,19.38,74054.3,8.03,4.53,4.63,0,*70
1536152537.07,58856,19.38,74056.5,8.01,4.45,4.57,0,*71
1536152538.33,58857,19.38,74054.0,7.99,4.63,4.67,0,*79
1536152539.53,58858,19.38,74052.3,7.99,4.33,4.45,0,*73
1536152540.77,58859,19.38,74052.3,7.95,4.53,4.63,0,*7C
1536152542.0,58860,19.38,74050.8,7.95,4.85,4.97,0,*76
1536152543.23,58861,19.38,74050.5,7.95,4.53,4.63,0,*77
1536152544.44,58862,19.38,74052.3,7.89,5.07,5.27,0,*78
1536152545.64,58863,19.44,74054.8,7.89,5.77,5.99,0,*7B
1536152546.86,58864,19.38,74048.8,7.93,6.21,6.43,0,*73
1536152548.09,58865,19.38,74052.8,7.93,6.51,6.61,0,*75
1536152549.28,58866,19.38,74052.0,7.93,6.03,6.11,0,*76
1536152550.53,58867,19.38,74052.3,7.95,5.73,5.81,0,*7F
1536152551.74,58868,19.38,74052.0,7.97,5.71,5.93,0,*73
1536152552.97,58869,19.38,74054.5,7.95,5.67,5.93,0,*77
1536152554.21,58870,19.44,74052.3,7.95,5.51,5.77,0,*70
1536152555.44,58871,19.38,74050.8,7.97,5.93,6.17,0,*78
1536152556.65,58872,19.38,74052.5,7.95,5.45,5.67,0,*76
1536152557.84,58873,19.44,74054.0,7.97,5.77,5.95,0,*79
1536152559.08,58874,19.38,74050.3,7.95,5.89,6.11,0,*72
1536152560.31,58875,19.44,74052.8,7.97,6.17,6.47,0,*76
1536152561.55,58876,19.38,74054.0,7.97,6.17,6.47,0,*75
1536152562.78,58877,19.44,74054.0,7.97,6.47,6.61,0,*75
1536152563.98,58878,19.38,74054.8,7.97,6.61,6.75,0,*7B
1536152565.21,58879,19.38,74054.5,8.01,6.57,6.69,0,*72
1536152566.46,58880,19.44,74052.8,7.99,6.47,6.61,0,*73
1536152567.67,58881,19.38,74054.3,8.01,6.65,6.97,0,*75
1536152568.89,58882,19.38,74052.3,8.01,6.53,6.69,0,*72
1536152570.1,58883,19.44,74056.8,8.01,6.29,6.51,0,*75
1536152571.32,58884,19.38,74052.3,8.01,6.43,6.57,0,*78
1536152572.58,58885,19.38,74054.5,8.03,6.47,6.61,0,*7A
1536152573.82,58886,19.44,74058.0,8.03,6.33,6.47,0,*7E
1536152575.06,58887,19.38,74056.3,8.03,6.21,6.35,0,*79
1536152576.3,58888,19.38,74058.0,8.03,6.25,6.35,0,*72
1536152577.54,58889,19.38,74054.8,8.03,6.61,6.73,0,*71
1536152578.78,58890,19.44,74058.8,8.03,6.33,6.43,0,*7D
1536152580.03,58891,19.38,74052.8,8.03,5.55,5.73,0,*7F
1536152581.24,58892,19.38,74054.5,8.03,6.03,6.21,0,*78
1536152582.45,58893,19.38,74052.3,8.03,6.03,6.21,0,*79
1536152583.68,58894,19.38,74054.5,8.03,5.93,6.11,0,*77
1536152584.86,58895,19.38,74054.0,8.01,5.29,5.41,0,*73
1536152586.03,58896,19.38,74054.3,8.01,5.49,5.59,0,*7F
1536152587.27,58897,19.38,74054.8,7.99,5.05,5.11,0,*74
1536152588.5,58898,19.38,74052.3,7.99,5.23,5.27,0,*7A
1536152589.68,58899,19.38,74054.0,7.97,5.33,5.49,0,*7C
1536152590.85,58900,19.38,74052.5,7.97,5.33,5.49,0,*7D
1536152592.03,58901,19.38,74054.5,7.97,5.37,5.45,0,*74
1536152593.28,58902,19.38,74054.3,7.95,5.81,5.93,0,*73
1536152594.55,58903,19.38,74052.8,7.95,6.35,6.51,0,*73
1536152595.76,58904,19.38,74054.0,7.95,6.21,6.25,0,*72
1536152596.98,58905,19.38,74056.5,7.97,5.77,5.85,0,*78
1536152598.19,58906,19.44,74056.0,7.97,5.55,5.67,0,*77
1536152599.39,58907,19.38,74054.0,7.95,5.41,5.63,0,*75
1536152600.59,58908,19.38,74054.5,7.95,5.41,5.63,0,*7A
1536152601.8,58909,19.38,74054.5,7.93,5.67,5.77,0,*7C
1536152603.01,58910,19.38,74054.8,7.93,5.89,6.03,0,*74
1536152604.24,58911,19.38,74052.5,7.93,5.73,5.89,0,*71
1536152605.47,58912,19.44,74058.3,7.93,5.81,5.93,0,*74
1536152606.67,58913,19.38,74052.3,7.89,5.63,5.77,0,*78
1536152607.88,58914,19.38,74052.8,7.89,5.89,5.95,0,*77
1536152609.1,58915,19.38,74054.5,7.93,6.33,6.43,0,*77
1536152610.33,58916,19.38,74054.8,7.93,6.43,6.57,0,*76
1536152611.55,58917,19.38,74054.0,7.93,6.43,6.57,0,*77
1536152612.78,58918,19.44,74056.3,7.93,6.57,6.69,0,*70
1536152613.98,58919,19.38,74052.0,7.93,6.69,6.79,0,*7D
1536152615.15,58920,19.38,74054.5,7.93,6.79,7.01,0,*78
1536152616.34,58921,19.38,74048.8,7.97,6.97,7.09,0,*75
1536152617.52,58922,19.38,74054.8,7.97,6.83,6.97,0,*75
1536152618.73,58923,19.38,74050.3,7.97,6.87,6.97,0,*70
1536152619.95,58924,19.44,74058.5,7.99,6.75,6.87,0,*75
1536152621.15,58925,19.38,74052.8,7.99,6.75,6.93,0,*71
1536152622.38,58926,19.38,74052.3,7.99,6.65,6.75,0,*7B
1536152623.61,58927,19.38,74052.0,8.01,6.91,7.11,0,*7C
1536152624.79,58928,19.44,74056.3,8.01,6.79,6.97,0,*7A
1536152625.99,58929,19.38,74054.0,8.01,6.17,6.29,0,*76
1536152627.19,58930,19.44,74058.0,7.99,5.37,5.59,0,*75
1536152628.39,58931,19.44,74056.5,7.99,5.37,5.49,0,*75
1536152629.56,58932,19.38,74052.8,7.97,5.95,6.07,0,*79
1536152630.78,58933,19.38,74052.0,7.99,5.77,5.95,0,*72
1536152631.97,58934,19.44,74056.3,7.97,5.59,5.67,0,*7A
1536152633.17,58935,19.38,74054.5,7.99,5.45,5.59,0,*75
1536152634.41,58936,19.38,74052.8,7.95,5.77,5.89,0,*76
1536152635.63,58937,19.38,74054.0,7.97,6.25,6.35,0,*75
1536152636.85,58938,19.44,74054.0,7.95,5.67,5.73,0,*7C
1536152638.08,58939,19.38,74052.0,7.95,5.45,5.55,0,*79
1536152639.3,58940,19.38,74054.8,7.95,5.63,5.73,0,*77
1536152640.53,58941,19.38,74052.0,7.95,5.45,5.51,0,*72
1536152641.73,58942,19.38,74050.8,7.89,5.49,5.51,0,*70
1536152642.93,58943,19.38,74052.3,7.89,5.71,5.85,0,*73
1536152644.15,58944,19.38,74052.8,7.93,5.89,5.99,0,*75
1536152645.35,58945,19.38,74052.3,7.89,5.85,5.95,0,*7F
1536152646.56,58946,19.38,74054.0,7.89,5.85,5.95,0,*7C
1536152647.75,58947,19.38,74050.5,7.89,5.95,5.99,0,*70
1536152648.94,58948,19.38,74050.8,7.89,6.21,6.33,0,*70
1536152650.12,58949,19.38,74052.3,7.89,5.95,5.95,0,*72
1536152651.33,58950,19.44,74052.8,7.89,5.51,5.59,0,*72
1536152652.52,58951,19.38,74054.3,7.89,5.27,5.41,0,*7B
1536152653.72,58952,19.44,74052.8,7.89,5.71,5.77,0,*7E
1536152654.95,58953,19.38,74054.5,7.87,5.45,5.55,0,*76
1536152656.18,58954,19.38,74052.3,7.85,5.81,5.85,0,*76
1536152657.43,58955,19.44,74054.0,7.87,5.85,5.93,0,*76
1536152658.69,58956,19.38,74054.5,7.87,5.93,6.13,0,*79
1536152659.93,58957,19.44,74054.3,7.87,6.25,6.39,0,*7E
1536152661.2,58958,19.38,74054.0,7.87,6.51,6.51,0,*7C
1536152662.47,58959,19.44,74056.3,7.87,6.35,6.51,0,*7F
1536152663.71,58960,19.38,74052.8,7.85,6.35,6.43,0,*74
1536152664.92,58961,19.38,74052.8,7.85,6.29,6.43,0,*78
1536152666.19,58962,19.44,74052.0,7.87,6.35,6.43,0,*74
1536152667.4,58963,19.38,74052.8,7.87,6.07,6.25,0,*74
1536152668.61,58964,19.38,74052.0,7.89,6.29,6.47,0,*75
1536152669.87,58965,19.38,74052.0,7.87,6.13,6.17,0,*76
1536152671.11,58966,19.38,74052.3,7.87,5.67,5.85,0,*7D
1536152672.34,58967,19.38,74052.8,7.87,5.05,5.15,0,*71
1536152673.59,58968,19.38,74054.8,7.87,4.85,5.01,0,*72
1536152674.76,58969,19.38,74054.5,7.85,4.85,4.89,0,*70
1536152675.97,58970,19.38,74052.3,7.83,5.07,5.07,0,*72
1536152677.15,58971,19.38,74054.5,7.81,5.23,5.33,0,*70
1536152678.36,58972,19.38,74052.3,7.79,4.85,4.97,0,*76
1536152679.53,58973,19.38,74052.8,7.79,4.81,4.81,0,*74
1536152680.75,58974,19.44,74052.8,7.77,5.27,5.33,0,*78
1536152681.97,58975,19.38,74052.0,7.79,5.73,5.85,0,*7B
1536152683.2,58976,19.44,74054.0,7.77,5.81,6.07,0,*72
1536152684.43,58977,19.44,74056.3,7.77,5.93,6.03,0,*74
1536152685.67,58978,19.44,74054.5,7.77,5.93,6.03,0,*7B
1536152686.9,58979,19.38,74054.8,7.77,5.81,5.95,0,*75
1536152688.12,58980,19.44,74054.8,7.79,5.77,5.89,0,*79
1536152689.32,58981,19.38,74052.8,7.79,5.99,6.17,0,*7C
1536152690.49,58982,19.38,74052.0,7.79,6.11,6.21,0,*79
1536152691.72,58983,19.38,74054.8,7.77,6.07,6.17,0,*74
1536152692.95,58984,19.38,74050.8,7.77,6.17,6.25,0,*73
1536152694.16,58985,19.38,74054.3,7.79,6.21,6.43,0,*79
1536152695.36,58986,19.38,74050.3,7.79,6.29,6.35,0,*73
1536152696.58,58987,19.44,74058.0,7.81,6.33,6.35,0,*7E
1536152697.79,58988,19.38,74052.8,7.81,5.67,5.81,0,*7F
1536152699.01,58989,19.38,74052.0,7.81,5.77,5.81,0,*7F
1536152700.21,58990,19.44,74052.8,7.79,5.63,5.77,0,*7C
1536152701.42,58991,19.44,74054.8,7.79,5.77,5.89,0,*79
1536152702.64,58992,19.38,74050.0,7.81,5.89,5.99,0,*7D
1536152703.84,58993,19.44,74054.8,7.77,5.95,6.07,0,*7C
1536152705.02,58994,19.38,74054.5,7.79,5.95,6.11,0,*72
1536152706.21,58995,19.38,74050.8,7.79,6.07,6.17,0,*7D
1536152707.44,58996,19.38,74052.3,7.79,5.85,5.85,0,*7F
1536152708.67,58997,19.38,74052.3,7.77,5.85,5.95,0,*71
1536152709.88,58998,19.38,74052.5,7.79,5.77,5.85,0,*7C
1536152711.08,58999,19.38,74052.3,7.79,5.51,5.67,0,*75
1536152712.3,59000,19.44,74052.8,7.79,5.77,5.85,0,*75
1536152713.52,59001,19.38,74054.3,7.77,5.63,5.73,0,*76
1536152714.75,59002,19.38,74048.8,7.77,5.63,5.73,0,*75
1536152715.98,59003,19.38,74052.8,7.77,5.71,5.81,0,*7A
1536152717.2,59004,19.44,74054.5,7.77,5.71,5.73,0,*70
1536152718.45,59005,19.38,74054.5,7.77,5.81,5.81,0,*73
1536152719.66,59006,19.38,74054.5,7.77,5.63,5.71,0,*73
1536152720.91,59007,19.38,74052.5,7.77,5.73,5.73,0,*71
1536152722.13,59008,19.38,74054.0,7.77,5.63,5.73,0,*7F
1536152723.37,59009,19.38,74054.5,7.77,5.85,6.03,0,*72
1536152724.58,59010,19.38,74054.3,7.77,6.03,6.07,0,*73
1536152725.81,59011,19.38,74054.0,7.73,5.93,6.03,0,*78
1536152727.05,59012,19.44,74054.3,7.77,5.05,5.11,0,*70
1536152728.24,59013,19.38,74050.5,7.73,5.41,5.45,0,*74
1536152729.48,59014,19.38,74054.5,7.73,5.77,5.89,0,*76
1536152730.71,59015,19.44,74052.8,7.73,5.89,5.99,0,*77
1536152731.91,59016,19.44,74056.0,7.73,6.03,6.21,0,*75
1536152733.14,59017,19.44,74054.5,7.75,5.85,5.85,0,*72
1536152734.33,59018,19.38,74052.3,7.75,5.55,5.59,0,*71
1536152735.55,59019,19.44,74052.3,7.73,5.45,5.55,0,*7B
1536152736.8,59020,19.38,74052.8,7.73,5.81,5.93,0,*73
1536152738.02,59021,19.38,74048.0,7.73,6.03,6.13,0,*70
1536152739.22,59022,19.38,74052.8,7.73,6.11,6.21,0,*71
1536152740.43,59023,19.38,74052.8,7.75,6.33,6.39,0,*7F
1536152741.63,59024,19.38,74050.3,7.75,6.03,6.13,0,*73
1536152742.83,59025,19.38,74048.3,7.75,5.95,6.17,0,*7A
1536152744.06,59026,19.44,74052.8,7.73,6.13,6.25,0,*73
1536152745.22,59027,19.44,74050.8,7.75,6.07,6.07,0,*71
1536152746.45,59028,19.38,74048.3,7.75,5.73,5.85,0,*77
1536152747.65,59029,19.38,74052.8,7.75,5.81,5.95,0,*7A
1536152748.89,59030,19.44,74052.8,7.73,5.81,5.93,0,*72
1536152750.1,59031,19.38,74052.8,7.73,5.67,5.67,0,*70
1536152751.31,59032,19.38,74050.3,7.73,5.71,5.73,0,*71
1536152752.53,59033,19.44,74054.0,7.73,5.71,5.77,0,*74
1536152753.73,59034,19.44,74054.0,7.73,5.07,5.11,0,*72
1536152754.92,59035,19.38,74052.8,7.73,5.45,5.45,0,*74
1536152756.1,59036,19.44,74052.3,7.67,5.07,5.15,0,*71
1536152757.33,59037,19.38,74050.3,7.67,4.93,5.05,0,*7D
1536152758.52,59038,19.44,74054.0,7.67,5.49,5.51,0,*75
1536152759.72,59039,19.38,74052.0,7.67,5.67,5.77,0,*7C
1536152760.92,59040,19.38,74050.5,7.67,5.41,5.51,0,*72
1536152762.08,59041,19.38,74054.0,7.67,5.29,5.37,0,*7D
1536152763.26,59042,19.38,74052.8,7.67,5.15,5.19,0,*7D
1536152764.52,59043,19.38,74052.8,7.65,5.05,5.05,0,*72
1536152765.73,59044,19.38,74052.3,7.63,5.01,5.11,0,*72
1536152766.92,59045,19.38,74050.5,7.63,4.67,4.81,0,*7A
1536152768.18,59046,19.38,74052.8,7.61,4.63,4.79,0,*78
1536152769.36,59047,19.38,74052.8,7.59,5.07,5.11,0,*7E
1536152770.57,59048,19.38,74052.3,7.61,5.49,5.59,0,*7C
1536152771.77,59049,19.38,74054.5,7.59,5.67,5.81,0,*7F
1536152773.02,59050,19.38,74052.8,7.61,5.77,5.89,0,*75
1536152774.26,59051,19.38,74052.8,7.61,5.89,6.03,0,*74
1536152775.49,59052,19.38,74052.3,7.61,5.89,6.03,0,*77
1536152776.76,59053,19.38,74054.8,7.61,4.97,5.01,0,*79
1536152777.96,59054,19.38,74048.8,7.61,5.11,5.29,0,*7B
1536152779.19,59055,19.38,74052.0,7.61,5.67,5.77,0,*70
1536152780.38,59056,19.44,74054.0,7.63,5.71,5.81,0,*7F
1536152781.62,59057,19.38,74054.5,7.61,5.89,5.99,0,*72
1536152782.85,59058,19.38,74050.5,7.61,5.55,5.67,0,*7D
1536152784.07,59059,19.44,74054.0,7.61,5.71,5.77,0,*7B
1536152785.3,59060,19.44,74054.5,7.61,5.77,5.99,0,*77
1536152786.5,59061,19.38,74048.0,7.59,5.71,5.81,0,*72
1536152787.73,59062,19.38,74050.0,7.61,5.67,5.77,0,*74
1536152788.93,59063,19.44,74054.8,7.61,5.67,5.71,0,*73
1536152790.16,59064,19.38,74052.0,7.61,5.71,5.81,0,*7C
1536152791.4,59065,19.38,74050.5,7.61,5.89,6.03,0,*73
1536152792.63,59066,19.38,74052.3,7.61,5.99,6.13,0,*70
1536152793.84,59067,19.44,74052.8,7.61,5.99,6.11,0,*73
1536152795.02,59068,19.38,74048.3,7.63,6.29,6.29,0,*7D
1536152796.2,59069,19.38,74048.3,7.63,6.21,6.33,0,*7F
1536152797.43,59070,19.38,74050.0,7.65,6.13,6.21,0,*73
1536152798.61,59071,19.38,74048.8,7.63,6.21,6.33,0,*76
1536152799.82,59072,19.44,74054.5,7.63,6.13,6.21,0,*77
1536152801.07,59073,19.38,74054.5,7.65,5.93,6.13,0,*7A
1536152802.27,59074,19.38,74052.8,7.63,6.03,6.13,0,*71
1536152803.5,59075,19.38,74054.0,7.65,5.85,5.95,0,*76
1536152804.71,59076,19.38,74052.8,7.65,5.27,5.45,0,*70
1536152805.94,59077,19.38,74054.0,7.63,4.93,5.05,0,*7D
1536152807.12,59078,19.38,74050.0,7.63,5.33,5.45,0,*7D
1536152808.29,59079,19.44,74052.0,7.63,5.23,5.37,0,*78
1536152809.49,59080,19.38,74050.8,7.61,5.45,5.59,0,*74
1536152810.7,59081,19.38,74052.5,7.61,5.59,5.71,0,*72
1536152811.9,59082,19.38,74052.8,7.61,5.49,5.59,0,*7A
1536152813.15,59083,19.44,74052.8,7.61,5.55,5.77,0,*7A
1536152814.34,59084,19.38,74050.3,7.63,5.15,5.27,0,*7E
1536152815.58,59085,19.44,74054.3,7.61,4.59,4.41,0,*75
1536152816.75,59086,19.44,74052.0,7.59,4.49,4.49,0,*74
1536152817.95,59087,19.38,74052.5,7.59,4.85,4.97,0,*76
1536152819.18,59088,19.44,74056.3,7.57,4.81,4.97,0,*73
1536152820.37,59089,19.38,74054.0,7.55,4.53,4.57,0,*73
1536152821.58,59090,19.38,74054.5,7.55,4.31,4.33,0,*7D
1536152822.79,59091,19.38,74050.8,7.55,4.81,4.93,0,*7D
1536152824.0,59092,19.38,74054.3,7.53,4.41,4.53,0,*78
1536152825.24,59093,19.38,74050.8,7.53,4.53,4.67,0,*7D
1536152826.44,59094,19.38,74052.5,7.51,4.57,4.67,0,*7C
1536152827.66,59095,19.44,74054.0,7.53,4.53,4.57,0,*78
1536152828.89,59096,19.44,74052.3,7.49,4.37,4.59,0,*7C
1536152830.15,59097,19.44,74052.8,7.47,4.59,4.75,0,*75
1536152831.38,59098,19.38,74052.8,7.47,4.85,4.97,0,*77
1536152832.63,59099,19.44,74054.3,7.47,5.05,5.27,0,*75
1536152833.84,59100,19.38,74048.0,7.47,5.19,5.33,0,*7C
1536152835.03,59101,19.38,74052.3,7.47,5.33,5.45,0,*74
1536152836.25,59102,19.44,74054.5,7.49,5.27,5.41,0,*78
1536152837.48,59103,19.38,74050.5,7.47,4.81,5.05,0,*7A
1536152838.71,59104,19.38,74048.8,7.47,4.97,5.07,0,*78
1536152839.93,59105,19.38,74048.3,7.49,5.27,5.41,0,*7F
1536152841.16,59106,19.38,74048.8,7.49,5.45,5.55,0,*7D
1536152842.38,59107,19.38,74048.0,7.47,5.41,5.51,0,*72
1536152843.6,59108,19.38,74048.8,7.47,5.51,5.63,0,*7D
1536152844.8,59109,19.38,74050.5,7.47,5.15,5.33,0,*79
1536152846.02,59110,19.38,74052.3,7.47,5.63,5.77,0,*70
1536152847.22,59111,19.44,74054.5,7.47,5.15,5.33,0,*70
1536152848.42,59112,19.44,74054.8,7.47,5.15,5.33,0,*73
1536152849.62,59113,19.38,74050.8,7.47,5.33,5.45,0,*77
1536152850.82,59114,19.38,74048.5,7.47,5.19,5.45,0,*78
1536152852.02,59115,19.38,74050.5,7.47,5.45,5.67,0,*70
1536152853.24,59116,19.38,74048.8,7.47,5.51,5.67,0,*76
1536152854.44,59117,19.38,74052.3,7.47,5.45,5.63,0,*76
1536152855.63,59118,19.38,74050.5,7.49,5.45,5.63,0,*77
1536152856.85,59119,19.38,74052.3,7.49,5.27,5.45,0,*76
1536152858.07,59120,19.44,74054.5,7.49,5.27,5.41,0,*78
1536152859.27,59121,19.38,74050.3,7.47,5.45,5.67,0,*77
1536152860.48,59122,19.38,74050.3,7.51,5.81,6.03,0,*7A
1536152861.69,59123,19.38,74048.8,7.51,5.89,6.03,0,*73
1536152862.92,59124,19.38,74048.5,7.49,5.67,5.85,0,*70
1536152864.13,59125,19.38,74048.8,7.51,5.81,5.99,0,*7D
1536152865.36,59126,19.38,74050.5,7.53,5.93,6.07,0,*7B
1536152866.58,59127,19.44,74054.0,7.51,5.77,5.93,0,*7C
1536152867.79,59128,19.38,74048.3,7.51,5.89,6.03,0,*78
1536152868.99,59129,19.44,74048.8,7.51,5.77,5.99,0,*78
1536152870.19,59130,19.38,74048.3,7.51,5.67,5.89,0,*70
1536152871.39,59131,19.44,74050.5,7.51,5.77,6.03,0,*71
1536152872.6,59132,19.38,74050.8,7.51,5.67,5.81,0,*7A
1536152873.8,59133,19.38,74050.8,7.51,5.55,5.71,0,*75
1536152875.0,59134,19.38,74050.5,7.51,5.71,5.89,0,*73
1536152876.23,59135,19.38,74050.8,7.53,5.95,6.17,0,*7E
1536152877.47,59136,19.38,74048.8,7.51,6.35,6.51,0,*74
1536152878.71,59137,19.38,74050.5,7.53,6.29,6.51,0,*7A
1536152879.93,59138,19.38,74050.3,7.53,6.21,6.33,0,*79
1536152881.13,59139,19.38,74050.8,7.51,5.99,6.17,0,*7C
1536152882.39,59140,19.44,74054.0,7.53,5.93,6.17,0,*7A
1536152883.63,59141,19.38,74050.0,7.53,5.85,5.95,0,*75
1536152884.83,59142,19.38,74052.8,7.51,5.77,5.99,0,*75
1536152886.06,59143,19.44,74054.8,7.53,5.71,5.81,0,*79
1536152887.29,59144,19.38,74054.3,7.53,4.81,4.93,0,*72
1536152888.53,59145,19.38,74052.0,7.51,4.67,4.75,0,*71
1536152889.73,59146,19.38,74054.8,7.51,4.67,4.89,0,*71
1536152890.91,59147,19.38,74052.8,7.51,5.19,5.33,0,*78
1536152892.14,59148,19.38,74054.5,7.47,4.75,4.85,0,*77
1536152893.37,59149,19.38,74048.8,7.47,4.81,4.97,0,*7E
1536152894.62,59150,19.44,74056.0,7.47,4.59,4.75,0,*7F
1536152895.88,59151,19.44,74054.0,7.49,4.97,5.27,0,*74
1536152897.11,59152,19.44,74052.0,7.47,5.33,5.51,0,*77
1536152898.3,59153,19.38,74052.8,7.43,5.41,5.63,0,*76
1536152899.55,59154,19.38,74054.8,7.43,5.51,5.73,0,*71
1536152900.76,59155,19.38,74048.5,7.43,5.29,5.51,0,*7F
1536152901.98,59156,19.38,74054.8,7.43,5.51,5.71,0,*71
1536152903.18,59157,19.38,74048.8,7.43,5.41,5.49,0,*7A
1536152904.4,59158,19.44,74052.0,7.43,5.59,5.81,0,*78
1536152905.62,59159,19.38,74052.3,7.47,5.77,5.99,0,*78
1536152906.85,59160,19.38,74052.5,7.47,5.63,5.85,0,*7A
1536152908.08,59161,19.38,74054.3,7.49,5.67,5.89,0,*7D
1536152909.3,59162,19.38,74048.8,7.47,5.77,5.95,0,*7C
1536152910.54,59163,19.38,74050.5,7.47,5.55,5.73,0,*75
1536152911.76,59164,19.38,74050.0,7.47,5.45,5.51,0,*73
1536152912.98,59165,19.44,74054.5,7.47,5.67,5.85,0,*7B
1536152914.21,59166,19.38,74052.0,7.49,5.85,5.99,0,*77
1536152915.45,59167,19.44,74052.3,7.49,5.89,5.99,0,*7A
1536152916.68,59168,19.38,74048.3,7.47,5.85,5.95,0,*7B
1536152917.91,59169,19.44,74054.3,7.49,5.99,6.13,0,*74
1536152919.11,59170,19.38,74052.8,7.47,6.11,6.25,0,*74
1536152920.31,59171,19.38,74054.5,7.49,6.11,6.25,0,*7B
1536152921.55,59172,19.38,74052.5,7.49,6.21,6.35,0,*7A
1536152922.79,59173,19.38,74052.8,7.49,6.33,6.47,0,*7D
1536152924.0,59174,19.38,74050.3,7.51,6.29,6.39,0,*71
1536152925.2,59175,19.38,74054.5,7.51,6.17,6.25,0,*70
1536152926.42,59176,19.38,74054.0,7.49,5.63,5.67,0,*7F
1536152927.62,59177,19.38,74054.3,7.51,5.71,5.81,0,*7C
1536152928.82,59178,19.38,74054.0,7.51,5.71,5.81,0,*73
1536152930.04,59179,19.38,74054.8,7.51,5.81,5.93,0,*7E
1536152931.26,59180,19.38,74054.5,7.49,5.99,6.03,0,*72